sat.trackr.live / text

‹ back to catalog

STARLINK-36414

NORAD 67468 · 2026-008Z

PAYLOAD ACTIVE UNKNOWN

§ Identity

Operator
Country
US
Launch date
2026-01-14
Launch site
AFETR
Launch vehicle
Mass (kg)
RCS (m²)

Purposes: comms

External: N2YO · Heavens-Above · Gunter

§ Orbital elements

Epoch: 2026-05-24T23:36:15.895584Z

Period
94.27 min
Inclination
42.9991°
Eccentricity
0.0001078
Mean motion
15.27594700 rev/d
Perigee alt
482.3 km
Apogee alt
483.7 km
Semi-major
6,861.1 km
B*
7.4312e-4
RAAN
134.0572°
Arg perigee
266.5631°
Mean anomaly
93.5097°
Rev number
2,124

§ Raw data

STARLINK-364141 67468U 26008Z   26144.98351731  .00020252  00000+0  74312-3 0  99912 67468  42.9991 134.0572 0001078 266.5631  93.5097 15.27594700 21246

JSON: /api/v1/satellites/67468 · /tle

For live sub-satellite position, see the globe view (requires WebGL).

§ Visibility from observer

Set your observer location to see the next 7 days of passes ≥ 10°. The values pass through the URL so the page stays shareable.

No JS? Fill the form by hand. The geolocation button needs JavaScript.